Weather History for Hyannis, MA

Change the Weather History Date:

Tuesday, December 25, 2012

  Actual Average Record
Temperature  
Mean Temperature 37 °F -  
Max Temperature 41 °F 41 °F 59 °F (1940)
Min Temperature 33 °F 22 °F -10 °F (1983)
Degree Days  
Heating Degree Days 28    
Moisture  
Dew Point 35 °F    
Average Humidity 92    
Maximum Humidity 100    
Minimum Humidity 79    
Precipitation  
Precipitation 0.15 in - - ()
Sea Level Pressure  
Sea Level Pressure 30.01 in    
Wind  
Wind Speed 6 mph (North)    
Max Wind Speed 15 mph    
Max Gust Speed 22 mph    
Visibility 9 miles    
Events Rain    
Averages and records for this station are not official NWS values.
T = Trace of Precipitation, MM = Missing Value Source: NWS Daily Summary

Daily Weather History Graph

Daily Weather History Graph

Search for Another Location

Airport:

Trip Planner

Search our weather history database for the weather conditions in past years. The results will help you decide how hot, cold, wet, or windy it might be!

Date:

Astronomy

Dec. 25, 2012 Rise Set
Actual Time 7:06 AM EST 4:16 PM EST
Civil Twilight 6:35 AM EST 4:47 PM EST
Nautical Twilight 6:00 AM EST 5:22 PM EST
Astronomical Twilight 5:26 AM EST 5:56 PM EST
Moon 2:22 PM EST (12/25) 4:35 AM EST (12/25)
Length of Visible Light 10h 12m
Length of Day
9h 09m
Waxing Gibbous, 93% of the Moon is Illuminated
Dec 25
Waxing Gibbous
Dec 28
Full
Jan 4
Last Quarter
Jan 11
New
Jan 18
First Quarter

Hourly Weather History & Observations

Time (EST) Temp. Windchill Dew Point Humidity Pressure Visibility Wind Dir Wind Speed Gust Speed Precip Events Conditions
12:51 AM 33.8 °F - 30.2 °F 87% 29.98 in 10.0 mi Calm Calm - 0.00 in Rain Light Rain
12:56 AM 33.1 °F 30.0 °F 30.0 °F 89% 29.99 in 9.0 mi NE 3.5 mph - 0.00 in Rain Light Rain
1:56 AM 33.1 °F - 30.9 °F 92% 30.00 in 10.0 mi Calm Calm - 0.01 in Rain Light Rain
2:56 AM 34.0 °F 31.0 °F 33.1 °F 96% 29.98 in 10.0 mi NE 3.5 mph - 0.00 in   Overcast
3:56 AM 35.1 °F 32.2 °F 34.0 °F 96% 29.97 in 10.0 mi NNE 3.5 mph - N/A   Overcast
4:56 AM 36.0 °F 32.1 °F 34.0 °F 93% 29.96 in 8.0 mi NNE 4.6 mph - 0.00 in Rain Light Rain
5:16 AM 35.6 °F 32.8 °F 35.6 °F 100% 29.95 in 8.0 mi NNE 3.5 mph - 0.00 in   Overcast
5:56 AM 36.0 °F 31.1 °F 35.1 °F 97% 29.95 in 9.0 mi NE 5.8 mph - 0.00 in   Overcast
6:56 AM 37.0 °F 33.3 °F 36.0 °F 96% 29.96 in 10.0 mi NNE 4.6 mph - N/A   Overcast
7:56 AM 37.9 °F 34.4 °F 37.0 °F 97% 29.95 in 10.0 mi NNE 4.6 mph - N/A   Overcast
8:56 AM 39.9 °F 36.7 °F 39.0 °F 97% 29.96 in 6.0 mi North 4.6 mph - 0.03 in Rain Light Rain
9:56 AM 41.0 °F 37.1 °F 39.9 °F 96% 29.98 in 5.0 mi NNE 5.8 mph - 0.00 in Rain Light Rain
10:56 AM 41.0 °F 34.3 °F 39.0 °F 93% 29.97 in 5.0 mi North 11.5 mph - 0.04 in Rain Light Rain
11:56 AM 39.9 °F 35.1 °F 39.0 °F 97% 29.96 in 7.0 mi NNW 6.9 mph - 0.03 in Rain Light Rain
12:56 PM 39.9 °F 35.1 °F 39.0 °F 97% 29.96 in 3.0 mi NNW 6.9 mph - 0.04 in Rain Light Rain
1:56 PM 41.0 °F 35.8 °F 39.9 °F 96% 29.94 in 10.0 mi North 8.1 mph - 0.00 in   Overcast
2:09 PM 41.0 °F 35.2 °F 39.2 °F 93% 29.94 in 10.0 mi North 9.2 mph - N/A   Overcast
2:36 PM 39.2 °F 31.2 °F 39.2 °F 100% 29.96 in 8.0 mi NNW 13.8 mph 20.7 mph N/A   Overcast
2:56 PM 39.9 °F 32.1 °F 37.9 °F 93% 29.99 in 9.0 mi NNW 13.8 mph 20.7 mph N/A   Overcast
3:56 PM 37.9 °F 30.5 °F 37.0 °F 97% 30.01 in 10.0 mi NNW 11.5 mph 21.9 mph N/A   Overcast
4:56 PM 37.9 °F 30.0 °F 36.0 °F 93% 30.03 in 10.0 mi North 12.7 mph 21.9 mph N/A   Overcast
5:44 PM 37.4 °F 28.5 °F 35.6 °F 93% 30.03 in 10.0 mi North 15.0 mph 20.7 mph N/A   Overcast
5:56 PM 37.9 °F 29.2 °F 35.1 °F 89% 30.05 in 10.0 mi North 15.0 mph 20.7 mph N/A   Overcast
6:56 PM 37.0 °F 29.8 °F 33.1 °F 86% 30.09 in 10.0 mi North 10.4 mph 20.7 mph N/A   Overcast
7:14 PM 37.4 °F 29.8 °F 33.8 °F 87% 30.09 in 10.0 mi NNW 11.5 mph - N/A   Overcast
7:56 PM 36.0 °F 28.5 °F 32.0 °F 86% 30.12 in 10.0 mi NNW 10.4 mph - N/A   Overcast
8:56 PM 36.0 °F 28.0 °F 30.0 °F 79% 30.12 in 10.0 mi North 11.5 mph - N/A   Overcast
9:56 PM 36.0 °F 28.5 °F 30.0 °F 79% 30.14 in 10.0 mi NNW 10.4 mph - N/A   Overcast
10:56 PM 37.0 °F 31.0 °F 30.9 °F 79% 30.16 in 10.0 mi NNW 8.1 mph - N/A   Overcast
11:56 PM 34.0 °F 29.8 °F 30.0 °F 85% 30.18 in 10.0 mi Variable 4.6 mph - N/A   Overcast